Abilene, TX

12:44 PM CST on February 12, 2016 (GMT -0600)
Abilene Regional

Weather History for KABI - October, 2011

Change the Weather History Date:

Sunday, October 30, 2011

  Actual Average Record
Temperature  
Mean Temperature 59 °F 61 °F  
Max Temperature 72 °F 73 °F 89 °F (1968)
Min Temperature 46 °F 50 °F 23 °F (1917)
Degree Days  
Heating Degree Days 6 6  
Month to date heating degree days 69 87  
Since 1 July heating degree days 69 98  
Cooling Degree Days 0 2  
Month to date cooling degree days 145 115  
Year to date cooling degree days 3487 2386  
Growing Degree Days 10 (Base 50)    
Moisture  
Dew Point 39 °F    
Average Humidity 56    
Maximum Humidity 80    
Minimum Humidity 31    
Precipitation  
Precipitation 0.00 in 0.08 in 2.62 in (2015)
Month to date precipitation 4.09 2.90  
Year to date precipitation 14.72 22.10  
Sea Level Pressure  
Sea Level Pressure 30.08 in    
Wind  
Wind Speed 6 mph (SSE)    
Max Wind Speed 16 mph    
Max Gust Speed 21 mph    
Visibility 10 miles    
Events      
T = Trace of Precipitation, MM = Missing Value Source: NWS Daily Summary

Daily Weather History Graph

Daily Weather History Graph

Search for Another Location

Airport or City:

Trip Planner

Search our weather history database for the weather conditions in past years. The results will help you decide how hot, cold, wet, or windy it might be!

Date:

Astronomy

Oct. 30, 2011 Rise Set
Actual Time 7:54 AM CDT 6:50 PM CDT
Civil Twilight 7:28 AM CDT 7:15 PM CDT
Nautical Twilight 6:59 AM CDT 7:44 PM CDT
Astronomical Twilight 6:31 AM CDT 8:13 PM CDT
Moon 12:05 PM CDT (10/30) 10:29 PM CDT (10/30)
Length of Visible Light 11h 46m
Length of Day
10h 56m
Waxing Crescent, 20% of the Moon is Illuminated
Oct 30
Waxing Crescent
Nov 2
First Quarter
Nov 10
Full
Nov 18
Last Quarter
Nov 25
New

Hourly Weather History & Observations

Time (CDT) Temp. Dew Point Humidity Pressure Visibility Wind Dir Wind Speed Gust Speed Precip Events Conditions
12:52 AM 52.0 °F 33.1 °F 49% 30.01 in 10.0 mi South 11.5 mph - N/A   Clear
1:52 AM 55.0 °F 34.0 °F 45% 30.00 in 10.0 mi South 15.0 mph - N/A   Clear
2:52 AM 54.0 °F 35.1 °F 49% 29.99 in 10.0 mi South 11.5 mph - N/A   Clear
3:52 AM 53.1 °F 35.1 °F 50% 29.98 in 10.0 mi South 8.1 mph - N/A   Clear
4:52 AM 51.1 °F 36.0 °F 56% 29.98 in 10.0 mi South 8.1 mph - N/A   Clear
5:52 AM 51.1 °F 36.0 °F 56% 29.99 in 10.0 mi South 13.8 mph - N/A   Clear
6:52 AM 51.1 °F 36.0 °F 56% 30.03 in 10.0 mi South 9.2 mph - N/A   Clear
7:52 AM 50.0 °F 36.0 °F 59% 30.04 in 10.0 mi South 10.4 mph - N/A   Clear
8:52 AM 53.1 °F 36.0 °F 52% 30.07 in 10.0 mi South 8.1 mph - N/A   Clear
9:52 AM 55.0 °F 36.0 °F 49% 30.11 in 10.0 mi SW 10.4 mph - N/A   Clear
10:52 AM 57.9 °F 37.0 °F 46% 30.12 in 10.0 mi SSW 8.1 mph - N/A   Clear
11:52 AM 62.1 °F 37.0 °F 39% 30.11 in 10.0 mi Variable 6.9 mph - N/A   Clear
12:52 PM 64.9 °F 39.0 °F 39% 30.10 in 10.0 mi Calm Calm - N/A   Clear
1:52 PM 68.0 °F 39.0 °F 35% 30.08 in 10.0 mi Variable 4.6 mph - N/A   Clear
2:52 PM 70.0 °F 39.9 °F 33% 30.06 in 10.0 mi East 4.6 mph - N/A   Clear
3:52 PM 71.1 °F 39.0 °F 31% 30.07 in 10.0 mi ENE 4.6 mph - N/A   Clear
4:52 PM 71.1 °F 39.9 °F 32% 30.08 in 10.0 mi Calm Calm - N/A   Clear
5:52 PM 71.1 °F 41.0 °F 34% 30.09 in 10.0 mi North 5.8 mph - N/A   Clear
6:52 PM 64.9 °F 43.0 °F 45% 30.11 in 10.0 mi North 6.9 mph - N/A   Clear
7:52 PM 62.1 °F 43.0 °F 50% 30.15 in 10.0 mi NNE 5.8 mph - N/A   Clear
8:52 PM 60.1 °F 43.0 °F 53% 30.16 in 10.0 mi North 4.6 mph - N/A   Clear
9:52 PM 55.0 °F 43.0 °F 64% 30.19 in 10.0 mi Calm Calm - N/A   Clear
10:52 PM 51.1 °F 43.0 °F 74% 30.21 in 10.0 mi Calm Calm - N/A   Clear
11:52 PM 50.0 °F 44.1 °F 80% 30.20 in 10.0 mi Calm Calm - N/A   Clear